Time,TemperatureF,DewpointF,PressureIn,WindDirection,WindDirectionDegrees,WindSpeedMPH,WindSpeedGustMPH,Humidity,HourlyPrecipIn,Conditions,Clouds,dailyrainin,SoftwareType,DateUTC
2013-10-10 00:00:00,45.1,42.6,30.24,West,273,0.0,2.0,91,0.00,,,0.00,Wunderground v.1.13,2013-10-10 04:00:00,
2013-10-10 00:30:00,44.2,42.0,30.23,West,273,0.0,2.0,92,0.00,,,0.00,Wunderground v.1.13,2013-10-10 04:30:00,
2013-10-10 01:00:00,43.9,41.7,30.23,West,273,0.0,2.0,92,0.00,,,0.00,Wunderground v.1.13,2013-10-10 05:00:00,
2013-10-10 01:30:00,43.1,40.9,30.22,West,273,0.0,2.0,92,0.00,,,0.00,Wunderground v.1.13,2013-10-10 05:30:00,
2013-10-10 02:00:00,43.1,40.9,30.23,West,273,0.0,2.0,92,0.00,,,0.00,Wunderground v.1.13,2013-10-10 06:00:00,
2013-10-10 02:30:00,42.9,41.0,30.22,West,273,0.0,2.0,93,0.00,,,0.00,Wunderground v.1.13,2013-10-10 06:30:00,
2013-10-10 03:00:00,42.8,40.9,30.22,West,273,0.0,2.0,93,0.00,,,0.00,Wunderground v.1.13,2013-10-10 07:00:00,
2013-10-10 07:00:00,39.6,37.7,30.24,West,273,0.0,0.0,93,0.00,,,0.00,Wunderground v.1.13,2013-10-10 11:00:00,
2013-10-10 07:30:00,39.5,37.6,30.24,West,273,0.0,0.0,93,0.00,,,0.00,Wunderground v.1.13,2013-10-10 11:30:00,
2013-10-10 08:00:00,40.2,38.3,30.24,West,273,0.0,0.0,93,0.00,,,0.00,Wunderground v.1.13,2013-10-10 12:00:00,
2013-10-10 08:30:00,41.6,40.0,30.25,West,273,0.0,0.0,94,0.00,,,0.00,Wunderground v.1.13,2013-10-10 12:30:00,
2013-10-10 09:00:00,43.9,42.0,30.25,West,273,0.0,0.0,93,0.00,,,0.00,Wunderground v.1.13,2013-10-10 13:00:00,
2013-10-10 09:30:00,48.5,43.6,30.24,West,273,0.0,0.0,83,0.00,,,0.00,Wunderground v.1.13,2013-10-10 13:30:00,
2013-10-10 10:00:00,54.1,44.2,30.24,West,273,0.0,0.0,69,0.00,,,0.00,Wunderground v.1.13,2013-10-10 14:00:00,
2013-10-10 10:30:00,58.7,44.4,30.23,West,273,0.0,0.0,59,0.00,,,0.00,Wunderground v.1.13,2013-10-10 14:30:00,
2013-10-10 11:00:00,61.2,39.7,30.22,West,273,0.0,0.0,45,0.00,,,0.00,Wunderground v.1.13,2013-10-10 15:00:00,
2013-10-10 11:30:00,63.4,40.5,30.22,West,273,0.0,0.0,43,0.00,,,0.00,Wunderground v.1.13,2013-10-10 15:30:00,
2013-10-10 12:00:00,65.0,40.7,30.21,West,273,0.0,0.0,41,0.00,,,0.00,Wunderground v.1.13,2013-10-10 16:00:00,
2013-10-10 12:30:00,67.1,42.6,30.20,West,273,0.0,0.0,41,0.00,,,0.00,Wunderground v.1.13,2013-10-10 16:30:00,
2013-10-10 13:00:00,66.1,41.7,30.19,West,273,0.0,0.0,41,0.00,,,0.00,Wunderground v.1.13,2013-10-10 17:00:00,
2013-10-10 13:30:00,66.6,40.2,30.18,West,273,0.0,0.0,38,0.00,,,0.00,Wunderground v.1.13,2013-10-10 17:30:00,
2013-10-10 14:00:00,68.4,41.8,30.17,West,273,0.0,0.0,38,0.00,,,0.00,Wunderground v.1.13,2013-10-10 18:00:00,
2013-10-10 14:30:00,69.6,39.2,30.16,West,273,0.0,0.0,33,0.00,,,0.00,Wunderground v.1.13,2013-10-10 18:30:00,
2013-10-10 15:00:00,68.3,44.3,30.16,West,273,0.0,0.0,42,0.00,,,0.00,Wunderground v.1.13,2013-10-10 19:00:00,
2013-10-10 15:30:00,68.1,40.1,30.16,West,273,0.0,0.0,36,0.00,,,0.00,Wunderground v.1.13,2013-10-10 19:30:00,
2013-10-10 16:00:00,67.9,43.3,30.15,West,273,0.0,0.0,41,0.00,,,0.00,Wunderground v.1.13,2013-10-10 20:00:00,
2013-10-10 16:30:00,69.3,40.5,30.14,West,273,0.0,0.0,35,0.00,,,0.00,Wunderground v.1.13,2013-10-10 20:30:00,
2013-10-10 17:00:00,67.8,46.3,30.14,West,273,0.0,0.0,46,0.00,,,0.00,Wunderground v.1.13,2013-10-10 21:00:00,
2013-10-10 17:30:00,66.0,46.3,30.13,West,273,0.0,0.0,49,0.00,,,0.00,Wunderground v.1.13,2013-10-10 21:30:00,
2013-10-10 18:00:00,62.6,46.7,30.13,West,273,0.0,0.0,56,0.00,,,0.00,Wunderground v.1.13,2013-10-10 22:00:00,
2013-10-10 18:30:00,58.9,46.7,30.13,West,273,0.0,0.0,64,0.00,,,0.00,Wunderground v.1.13,2013-10-10 22:30:00,
2013-10-10 19:00:00,56.5,48.3,30.13,West,273,0.0,0.0,74,0.00,,,0.00,Wunderground v.1.13,2013-10-10 23:00:00,
2013-10-10 19:30:00,55.0,49.3,30.13,West,273,0.0,0.0,81,0.00,,,0.00,Wunderground v.1.13,2013-10-10 23:30:00,
2013-10-10 20:00:00,53.8,49.1,30.13,West,273,0.0,0.0,84,0.00,,,0.00,Wunderground v.1.13,2013-10-11 00:00:00,
2013-10-10 20:30:00,52.9,48.5,30.13,West,273,0.0,0.0,85,0.00,,,0.00,Wunderground v.1.13,2013-10-11 00:30:00,
2013-10-10 21:00:00,51.9,47.8,30.12,West,273,0.0,0.0,86,0.00,,,0.00,Wunderground v.1.13,2013-10-11 01:00:00,
2013-10-10 21:30:00,51.0,46.6,30.12,West,273,0.0,0.0,85,0.00,,,0.00,Wunderground v.1.13,2013-10-11 01:30:00,
2013-10-10 22:00:00,50.2,45.9,30.12,West,273,0.0,0.0,85,0.00,,,0.00,Wunderground v.1.13,2013-10-11 02:00:00,
2013-10-10 23:00:00,48.3,45.2,30.11,West,273,0.0,0.0,89,0.00,,,0.00,Wunderground v.1.13,2013-10-11 03:00:00,
2013-10-10 23:30:00,47.4,44.6,30.11,West,273,0.0,0.0,90,0.00,,,0.00,Wunderground v.1.13,2013-10-11 03:30:00,